Location: Jastrz?bniki
(50.3667°N, 20.3833°E)
Time: 11:41:59
(UTC+00:00)

BREEZE-M DEB (TANK) - Pass Details

Date: 05 August 2024
Orbit: 291 x 16280 km, 49.4° (Epoch: 09 September)

Event Time Altitude Azimuth Distance (km) Brightness Sun altitude
Exits shadow 00:09:28 14° 270° (W) 1,830 5.2 -20.2°
Maximum altitude 00:13:05 84° 184° (S) 1,158 4.2 -20.0°
Drops below altitude 10° 00:29:57 10° 99° (E) 7,585 8.8 -18.9°
Sets 00:41:40 0° 100° (E) 11,366 9.7 -18.0°
